When you browse on this site, cookies collect data to enhance your experience and personalize the content and advertising you see.
Visit our Privacy Policy to learn more. By continuing to use the site, you agree to this use of cookies and data.
  • In Schweiz
  • Länderverzeichnis
  • Für 7 Tage
  • Wassertemperatur
  • Wetterkarte
  • Widgets
  • user-avatar
    Anmelden

    Stündliche Wetter Zaranj

    Heute, 23 Januar, Donnerstag

    Zeit Temperatur Niederschläge Wind Luftdruck Luftfeuchtigkeit
    00:00 +14°C° 0 mm 2 m/S 723 mmHg 57%
    01:00 +12°C° 0 mm 3 m/S 723 mmHg 58%
    02:00 +13°C° 0 mm 2 m/S 723 mmHg 60%
    03:00 +12°C° 0 mm 2 m/S 722 mmHg 61%
    04:00 +12°C° 0 mm 2 m/S 722 mmHg 64%
    05:00 +12°C° 0 mm 2 m/S 722 mmHg 64%
    06:00 +10°C° 0 mm 2 m/S 722 mmHg 64%
    07:00 +10°C° 0 mm 3 m/S 722 mmHg 65%
    08:00 +11°C° 0 mm 3 m/S 722 mmHg 62%
    09:00 +12°C° 0 mm 3 m/S 722 mmHg 59%
    10:00 +14°C° 0 mm 3 m/S 723 mmHg 54%
    11:00 +15°C° 0 mm 4 m/S 722 mmHg 52%
    12:00 +17°C° 0 mm 4 m/S 721 mmHg 49%
    13:00 +18°C° 0 mm 4 m/S 720 mmHg 47%
    14:00 +19°C° 0 mm 5 m/S 720 mmHg 46%
    15:00 +19°C° 0 mm 5 m/S 719 mmHg 45%
    16:00 +20°C° 0 mm 5 m/S 718 mmHg 45%
    17:00 +19°C° 0 mm 5 m/S 718 mmHg 50%
    18:00 +18°C° 0 mm 4 m/S 718 mmHg 54%
    19:00 +17°C° 0 mm 4 m/S 718 mmHg 59%
    20:00 +16°C° 0 mm 5 m/S 718 mmHg 60%
    21:00 +16°C° 0 mm 5 m/S 718 mmHg 61%
    22:00 +16°C° 0 mm 6 m/S 717 mmHg 62%
    23:00 +15°C° 0.3 mm 6 m/S 717 mmHg 65%

    Morgen, 24 Januar, Freitag

    Zeit Temperatur Niederschläge Wind Luftdruck Luftfeuchtigkeit
    00:00 +15°C° 0.3 mm 7 m/S 717 mmHg 69%
    01:00 +14°C° 0.3 mm 7 m/S 717 mmHg 72%
    02:00 +14°C° 0.7 mm 6 m/S 717 mmHg 75%
    03:00 +13°C° 0.7 mm 4 m/S 717 mmHg 78%
    04:00 +12°C° 0.7 mm 3 m/S 717 mmHg 81%
    05:00 +12°C° 0.3 mm 3 m/S 717 mmHg 82%
    06:00 +12°C° 0.3 mm 3 m/S 718 mmHg 82%
    07:00 +12°C° 0.3 mm 3 m/S 718 mmHg 83%
    08:00 +13°C° 0.3 mm 3 m/S 718 mmHg 82%
    09:00 +13°C° 0.3 mm 3 m/S 719 mmHg 81%
    10:00 +14°C° 0.3 mm 3 m/S 719 mmHg 80%
    11:00 +14°C° 0.3 mm 3 m/S 719 mmHg 81%
    12:00 +14°C° 0.3 mm 4 m/S 718 mmHg 82%
    13:00 +14°C° 0.3 mm 5 m/S 718 mmHg 82%
    14:00 +14°C° 0.1 mm 5 m/S 718 mmHg 78%
    15:00 +14°C° 0.1 mm 6 m/S 718 mmHg 74%
    16:00 +14°C° 0.1 mm 7 m/S 718 mmHg 70%
    17:00 +13°C° 0 mm 6 m/S 718 mmHg 73%
    18:00 +12°C° 0 mm 5 m/S 718 mmHg 75%
    19:00 +12°C° 0 mm 5 m/S 719 mmHg 78%
    20:00 +12°C° 0 mm 4 m/S 719 mmHg 79%
    21:00 +11°C° 0 mm 3 m/S 720 mmHg 79%
    22:00 +12°C° 0 mm 2 m/S 720 mmHg 79%
    23:00 +12°C° 0 mm 2 m/S 720 mmHg 80%

    übermorgen, 25 Januar, Samstag

    Zeit Temperatur Niederschläge Wind Luftdruck Luftfeuchtigkeit
    00:00 +10°C° 0 mm 2 m/S 720 mmHg 82%
    01:00 +10°C° 0 mm 3 m/S 720 mmHg 83%
    02:00 +10°C° 0 mm 3 m/S 720 mmHg 83%
    03:00 +9°C° 0 mm 3 m/S 720 mmHg 84%
    04:00 +9°C° 0 mm 3 m/S 720 mmHg 84%
    05:00 +9°C° 0 mm 3 m/S 720 mmHg 84%
    06:00 +8°C° 0 mm 3 m/S 720 mmHg 84%
    07:00 +8°C° 0 mm 3 m/S 721 mmHg 84%
    08:00 +9°C° 0 mm 3 m/S 721 mmHg 79%
    09:00 +10°C° 0 mm 3 m/S 721 mmHg 74%
    10:00 +11°C° 0 mm 3 m/S 722 mmHg 69%
    11:00 +12°C° 0 mm 3 m/S 721 mmHg 64%
    12:00 +13°C° 0 mm 3 m/S 720 mmHg 60%
    13:00 +14°C° 0 mm 3 m/S 720 mmHg 55%
    14:00 +16°C° 0 mm 3 m/S 720 mmHg 54%
    15:00 +16°C° 0 mm 3 m/S 719 mmHg 52%
    16:00 +16°C° 0 mm 3 m/S 719 mmHg 51%
    17:00 +16°C° 0 mm 3 m/S 719 mmHg 54%
    18:00 +14°C° 0 mm 3 m/S 719 mmHg 56%
    19:00 +13°C° 0 mm 3 m/S 719 mmHg 59%
    20:00 +13°C° 0 mm 3 m/S 720 mmHg 60%
    21:00 +13°C° 0 mm 3 m/S 720 mmHg 60%
    22:00 +12°C° 0 mm 3 m/S 720 mmHg 61%
    23:00 +12°C° 0 mm 5 m/S 720 mmHg 63%

    26 Januar, Sonntag

    Zeit Temperatur Niederschläge Wind Luftdruck Luftfeuchtigkeit
    00:00 +10°C° 0 mm 6 m/S 720 mmHg 64%
    01:00 +10°C° 0 mm 8 m/S 719 mmHg 66%
    02:00 +9°C° 0 mm 8 m/S 719 mmHg 68%
    03:00 +7°C° 0 mm 8 m/S 719 mmHg 70%
    04:00 +7°C° 0 mm 9 m/S 719 mmHg 72%
    05:00 +6°C° 0 mm 8 m/S 719 mmHg 71%
    06:00 +6°C° 0 mm 8 m/S 720 mmHg 71%
    07:00 +6°C° 0 mm 8 m/S 720 mmHg 71%
    08:00 +6°C° 0 mm 7 m/S 720 mmHg 71%
    09:00 +8°C° 0 mm 7 m/S 720 mmHg 70%
    10:00 +8°C° 0 mm 7 m/S 720 mmHg 70%
    11:00 +9°C° 0 mm 7 m/S 720 mmHg 68%
    12:00 +9°C° 0 mm 8 m/S 720 mmHg 65%
    13:00 +10°C° 0 mm 8 m/S 719 mmHg 63%
    14:00 +10°C° 0 mm 8 m/S 719 mmHg 62%
    15:00 +10°C° 0 mm 8 m/S 719 mmHg 62%
    16:00 +10°C° 0 mm 7 m/S 719 mmHg 61%
    17:00 +9°C° 0 mm 7 m/S 719 mmHg 60%
    18:00 +9°C° 0 mm 6 m/S 720 mmHg 59%
    19:00 +9°C° 0 mm 6 m/S 720 mmHg 58%
    20:00 +8°C° 0 mm 6 m/S 720 mmHg 59%
    21:00 +8°C° 0 mm 6 m/S 720 mmHg 60%
    22:00 +8°C° 0 mm 6 m/S 720 mmHg 61%
    23:00 +6°C° 0 mm 7 m/S 720 mmHg 61%

    27 Januar, Montag

    Zeit Temperatur Niederschläge Wind Luftdruck Luftfeuchtigkeit
    00:00 +6°C° 0 mm 7 m/S 720 mmHg 61%
    01:00 +6°C° 0 mm 7 m/S 720 mmHg 61%
    02:00 +6°C° 0 mm 7 m/S 720 mmHg 62%
    03:00 +5°C° 0 mm 7 m/S 720 mmHg 62%
    04:00 +5°C° 0 mm 6 m/S 720 mmHg 62%
    05:00 +5°C° 0 mm 6 m/S 720 mmHg 63%
    06:00 +5°C° 0 mm 6 m/S 720 mmHg 63%
    07:00 +5°C° 0 mm 6 m/S 721 mmHg 63%
    08:00 +6°C° 0 mm 7 m/S 721 mmHg 57%
    09:00 +7°C° 0 mm 8 m/S 721 mmHg 52%
    10:00 +8°C° 0 mm 9 m/S 722 mmHg 47%
    11:00 +10°C° 0 mm 9 m/S 721 mmHg 43%
    12:00 +11°C° 0 mm 9 m/S 721 mmHg 40%
    13:00 +12°C° 0 mm 9 m/S 720 mmHg 36%
    14:00 +12°C° 0 mm 10 m/S 720 mmHg 35%
    15:00 +12°C° 0 mm 10 m/S 720 mmHg 34%
    16:00 +12°C° 0 mm 10 m/S 720 mmHg 33%
    17:00 +11°C° 0 mm 10 m/S 720 mmHg 36%
    18:00 +9°C° 0 mm 10 m/S 721 mmHg 38%
    19:00 +8°C° 0 mm 9 m/S 721 mmHg 40%
    20:00 +8°C° 0 mm 10 m/S 721 mmHg 40%
    21:00 +7°C° 0 mm 11 m/S 721 mmHg 41%
    22:00 +7°C° 0 mm 12 m/S 722 mmHg 41%
    23:00 +5°C° 0 mm 12 m/S 721 mmHg 43%

    28 Januar, Dienstag

    Zeit Temperatur Niederschläge Wind Luftdruck Luftfeuchtigkeit
    00:00 +5°C° 0 mm 12 m/S 721 mmHg 46%
    01:00 +4°C° 0 mm 12 m/S 721 mmHg 49%
    02:00 +4°C° 0 mm 12 m/S 721 mmHg 51%
    03:00 +3°C° 0 mm 12 m/S 721 mmHg 53%
    04:00 +3°C° 0 mm 12 m/S 721 mmHg 56%
    05:00 +2°C° 0 mm 12 m/S 721 mmHg 58%
    06:00 +1°C° 0 mm 13 m/S 722 mmHg 60%
    07:00 +1°C° 0 mm 13 m/S 722 mmHg 62%
    08:00 +3°C° 0 mm 13 m/S 722 mmHg 59%
    09:00 +3°C° 0 mm 14 m/S 723 mmHg 56%
    10:00 +4°C° 0 mm 14 m/S 723 mmHg 53%
    11:00 +5°C° 0 mm 14 m/S 722 mmHg 50%
    12:00 +6°C° 0 mm 14 m/S 722 mmHg 47%
    13:00 +6°C° 0 mm 14 m/S 721 mmHg 44%
    14:00 +6°C° 0 mm 14 m/S 721 mmHg 43%
    15:00 +6°C° 0 mm 14 m/S 721 mmHg 43%
    16:00 +7°C° 0 mm 13 m/S 720 mmHg 43%
    17:00 +5°C° 0 mm 13 m/S 721 mmHg 44%
    18:00 +5°C° 0 mm 13 m/S 721 mmHg 46%
    19:00 +4°C° 0 mm 13 m/S 721 mmHg 47%
    20:00 +4°C° 0 mm 13 m/S 722 mmHg 48%
    21:00 +3°C° 0 mm 12 m/S 722 mmHg 49%
    22:00 +3°C° 0 mm 12 m/S 722 mmHg 50%
    23:00 +3°C° 0 mm 11 m/S 722 mmHg 51%
    Mehr zeigen